Flag for Cuba Weather past 2 weeks in Holguín, Cuba

Now
79 °F

Clear.


Feels Like: 82 °F
Forecast: 78 / 92 °F
Wind: 1 mph from North

Location: Holguin Civ / Mil

Current Time: Aug 20, 2014 at 10:42:31 PM

Latest Report: Aug 20, 2014 at 9:51 PM


Visibility: 10 mi

Pressure: 30.07 "Hg

Humidity: 79%

Dew point: 72 °F

Location of HolguínLocation

Historic Weather in Holguín — Graph

°F

Holguín temperature yesterday

Maximum temperature yesterday: 95 °F (at 2:51 PM)
Minimum temperature yesterday: 72 °F (at 3:50 AM)
Average temperature yesterday: 83 °F

Past Weeks' High & Low Weather Summary

 TemperatureHumidityPressure
High97 °F (Aug 13, 2:52 PM)100% (Aug 13, 11:50 PM)30.07 "Hg (Aug 13, 11:50 PM)
Low70 °F (Aug 11, 6:52 AM)36% (Aug 12, 2:53 PM)29.92 "Hg (Aug 6, 4:50 PM)
Average82 °F71%30.01 "Hg
* Reported Aug 5 8:50 PM — Aug 20 8:50 PM, Holguín, Weather by CustomWeather, © 2014

Note: Actual official high and low records may vary slightly from our data, if they occured in-between our weather recording intervals... More about our weather records

Advertising

Holguín weather history for previous 24 hours

 ConditionsComfort  
Time TempWeatherWind HumidityBarometerVisibility
8:50 PM
Aug 20
82 °FClear.5 mph66%30.07 "Hg10 mi
7:50 PM84 °FPassing clouds.9 mph62%30.04 "HgN/A
6:50 PM86 °FPassing clouds.12 mph55%30.01 "HgN/A
5:53 PM88 °FScattered clouds.13 mph55%29.98 "HgN/A
4:50 PM84 °FScattered clouds.16 mph62%30.01 "Hg6 mi
3:50 PM93 °FScattered clouds.12 mph39%29.98 "Hg6 mi
2:50 PM93 °FPartly sunny.8 mph41%29.98 "Hg6 mi
1:50 PM90 °FPartly sunny.14 mph49%30.01 "Hg6 mi
12:51 PM93 °FPartly sunny.10 mph44%30.01 "Hg6 mi
11:51 AM91 °FScattered clouds.13 mph49%30.04 "Hg6 mi
10:50 AM88 °FScattered clouds.13 mph59%30.04 "Hg6 mi
9:54 AM84 °FScattered clouds.13 mph66%30.04 "Hg6 mi
8:52 AM82 °FPassing clouds.8 mph79%30.01 "Hg6 mi
7:50 AM79 °FPassing clouds.5 mph84%30.01 "Hg6 mi
6:50 AM75 °FPassing clouds.2 mph89%29.98 "Hg5 mi
5:50 AM75 °FFog.2 mph89%29.98 "Hg4 mi
4:50 AM75 °FFog.5 mph89%29.98 "Hg5 mi
3:50 AM75 °FClear.3 mph89%29.98 "Hg6 mi
2:50 AM77 °FClear.5 mph89%29.98 "Hg6 mi
1:50 AM77 °FClear.3 mph89%30.01 "Hg10 mi
12:50 AM79 °FClear.6 mph84%30.01 "Hg10 mi
11:50 PM
Aug 19
79 °FClear.6 mph84%30.01 "Hg10 mi
10:50 PM81 °FClear.8 mph79%30.01 "Hg10 mi
Weather by CustomWeather, © 2014

See weather overviewHow to use our weather pages